Location: Leeds
(37.2390°N, 113.3580°W)
Time: 16:52:10
(UTC-06:00)

ISS - All Passes

Search period start: 19 April 2014 00:00
Search period end: 29 April 2014 00:00
Orbit: 414 x 419 km, 51.6° (Epoch: 19 April)

Date Brightness Start Highest point End Pass type
(mag) Time Alt. Az. Time Alt. Az. Time Alt. Az.
19 Apr - 00:14:35 10° WNW 00:17:19 23° SW 00:20:02 10° S night (unlit)
19 Apr - 15:18:48 10° SSW 15:21:47 31° SE 15:24:48 10° ENE daylight
19 Apr - 16:55:39 10° W 16:58:32 26° NNW 17:01:26 10° NNE daylight
19 Apr - 21:49:29 10° NNW 21:52:10 22° NNE 21:54:50 10° E visible
19 Apr - 23:25:50 10° WNW 23:29:02 43° SW 23:32:13 10° SSE visible
20 Apr - 14:31:15 10° S 14:33:30 17° SE 14:35:46 10° E daylight
20 Apr - 16:06:48 10° WSW 16:09:59 42° NW 16:13:12 10° NE daylight
20 Apr - 17:46:41 10° NNW 17:47:27 11° NNW 17:48:12 10° N daylight
20 Apr - 21:01:24 10° NNW 21:03:30 15° NNE 21:05:36 10° ENE visible
20 Apr - 22:37:16 10° NW 22:40:38 84° SW 22:43:58 10° SE visible
21 Apr - 15:18:07 10° SW 15:21:27 78° NW 15:24:48 10° NE daylight
21 Apr - 16:56:50 10° NW 16:58:40 14° NNW 17:00:29 10° N daylight
21 Apr - 20:13:30 10° N 20:14:44 12° NNE 20:15:58 10° NE daylight
21 Apr - 21:48:49 10° NW 21:52:06 52° NE 21:55:22 10° ESE visible
21 Apr - 23:26:41 10° W 23:28:30 14° SW 23:30:19 10° SSW visible
22 Apr - 14:29:40 10° SW 14:32:56 54° SE 14:36:12 10° ENE daylight
22 Apr - 16:07:24 10° WNW 16:09:52 19° NNW 16:12:22 10° NNE daylight
22 Apr - 21:00:25 10° NNW 21:03:27 31° NNE 21:06:28 10° E visible
22 Apr - 22:37:16 10° WNW 22:40:05 25° SW 22:42:54 10° S visible
23 Apr - 13:41:30 10° SSW 13:44:24 28° SE 13:47:19 10° ENE daylight
23 Apr - 15:18:09 10° W 15:21:05 28° NNW 15:24:03 10° NNE daylight
23 Apr - 20:12:04 10° NNW 20:14:40 20° NNE 20:17:15 10° E daylight
23 Apr - 21:48:19 10° WNW 21:51:33 48° SW 21:54:47 10° SSE visible
24 Apr - 12:53:50 10° SSE 12:55:53 16° SE 12:57:57 10° E daylight
24 Apr - 14:29:06 10° WSW 14:32:19 46° NW 14:35:34 10° NE daylight
24 Apr - 16:08:44 10° NW 16:09:43 11° NNW 16:10:42 10° N daylight
24 Apr - 19:23:47 10° NNW 19:25:45 15° NNE 19:27:43 10° ENE daylight
24 Apr - 20:59:33 10° NW 21:02:54 87° NE 21:06:14 10° SE visible
25 Apr - 13:40:14 10° SW 13:43:33 86° NW 13:46:54 10° NE daylight
25 Apr - 15:18:45 10° WNW 15:20:42 15° NNW 15:22:39 10° NNE daylight
25 Apr - 18:35:44 10° N 18:36:44 11° NNE 18:37:44 10° NE daylight
25 Apr - 20:10:52 10° NW 20:14:07 47° NE 20:17:21 10° ESE daylight
25 Apr - 21:48:29 10° W 21:50:33 15° SW 21:52:36 10° SSW visible
26 Apr - 12:51:35 10° SSW 12:54:48 48° SE 12:58:02 10° ENE daylight
26 Apr - 14:29:07 10° WNW 14:31:41 20° NNW 14:34:15 10° NNE daylight
26 Apr - 19:22:16 10° NNW 19:25:13 28° NNE 19:28:09 10° E daylight
26 Apr - 20:58:58 10° WNW 21:01:53 28° SW 21:04:47 10° SSE visible
27 Apr - 12:03:16 10° S 12:06:03 25° SE 12:08:51 10° ENE daylight
27 Apr - 13:39:40 10° W 13:42:40 30° NNW 13:45:41 10° NNE daylight
27 Apr - 18:33:42 10° NNW 18:36:10 19° NNE 18:38:39 10° ENE daylight
27 Apr - 20:09:50 10° WNW 20:13:06 55° SW 20:16:21 10° SE daylight
28 Apr - 11:15:33 10° SSE 11:17:18 14° SE 11:19:04 10° E daylight
28 Apr - 12:50:25 10° WSW 12:53:40 52° NW 12:56:56 10° NE daylight
28 Apr - 14:29:47 10° NW 14:31:00 12° NNW 14:32:13 10° N daylight
28 Apr - 17:45:13 10° N 17:47:01 14° NNE 17:48:48 10° NE daylight
28 Apr - 19:20:51 10° NW 19:24:12 77° NE 19:27:31 10° SE daylight
